{"data":{"norad_id":63575,"intl_designator":"2025-076G","name":"STARLINK-33732","alt_names":[],"object_type":"PAYLOAD","status":"ACTIVE","operator":null,"country":"US","launch_date":"2025-04-14","launch_site_code":"AFETR","launch_vehicle":null,"mission":null,"orbit_class":"UNKNOWN","rcs_meters":null,"size_class":null,"mass_kg":null,"dimensions":null,"purposes":["comms"],"wikipedia_slug":null,"has_3d_model":false,"image_url":null,"decayed_at":null,"tle_current":{"epoch":"2026-05-24T16:49:38.687808Z","epoch_age_seconds":104356,"freshness":"FRESH","line1":"1 63575U 25076G   26144.70114222  .00016594  00000+0  61065-3 0  9997","line2":"2 63575  43.0011 252.5790 0001790 276.4936  83.5711 15.27608807 63458","mean_motion":15.27608807,"eccentricity":0.000179,"inclination_deg":43.0011,"raan_deg":252.579,"arg_perigee_deg":276.4936,"mean_anomaly_deg":83.5711,"bstar":0.00061065,"rev_number":6345,"period_min":94.264971071223,"perigee_km":481.73470200276,"apogee_km":484.19097574507,"semimajor_km":6861.0998388739,"source":"CELESTRAK","updated_at":"2026-05-25T13:38:20.046581Z"}}}